Time,TemperatureF,DewpointF,PressureIn,WindDirection,WindDirectionDegrees,WindSpeedMPH,WindSpeedGustMPH,Humidity,HourlyPrecipIn,Conditions,Clouds,dailyrainin,SoftwareType,DateUTC
2013-01-22 00:00:00,57.3,55.0,30.04,NNE,26,0.0,0.0,92,0.00,CLR,,0.00,WeatherDisplay:10.37,2013-01-22 05:00:00,
2013-01-22 00:10:00,57.5,55.2,30.04,NNE,26,0.0,0.0,92,0.00,CLR,,0.00,WeatherDisplay:10.37,2013-01-22 05:10:00,
2013-01-22 00:15:00,57.7,55.1,30.04,NNE,26,0.0,1.0,91,0.00,CLR,,0.00,WeatherDisplay:10.37,2013-01-22 05:15:00,
2013-01-22 00:20:00,57.9,55.3,30.05,NNE,25,0.0,1.0,91,0.00,CLR,,0.00,WeatherDisplay:10.37,2013-01-22 05:20:00,
2013-01-22 00:25:00,58.0,55.1,30.05,NNE,25,0.0,0.0,90,0.00,CLR,,0.00,WeatherDisplay:10.37,2013-01-22 05:25:00,
2013-01-22 00:30:00,58.1,55.2,30.05,NNE,25,0.0,1.0,90,0.00,CLR,,0.00,WeatherDisplay:10.37,2013-01-22 05:30:00,
2013-01-22 00:35:00,58.1,55.2,30.05,NNE,25,0.0,1.0,90,0.00,CLR,,0.00,WeatherDisplay:10.37,2013-01-22 05:35:00,
2013-01-22 00:40:00,58.1,55.2,30.05,NNE,25,0.0,1.0,90,0.00,CLR,,0.00,WeatherDisplay:10.37,2013-01-22 05:40:00,
2013-01-22 00:45:00,58.2,55.3,30.04,NNE,25,0.0,0.0,90,0.00,CLR,,0.00,WeatherDisplay:10.37,2013-01-22 05:45:00,
2013-01-22 00:50:00,58.3,55.0,30.04,NNE,25,0.0,1.0,89,0.00,CLR,,0.00,WeatherDisplay:10.37,2013-01-22 05:50:00,
2013-01-22 00:55:00,58.4,55.2,30.05,NNE,25,0.0,1.0,89,0.00,CLR,,0.00,WeatherDisplay:10.37,2013-01-22 05:55:00,
2013-01-22 01:00:00,58.4,54.5,30.05,NNE,18,0.0,3.0,87,0.00,CLR,,0.00,WeatherDisplay:10.37,2013-01-22 06:00:00,
2013-01-22 01:10:00,58.5,53.1,30.05,NNW,344,0.0,4.0,82,0.00,CLR,,0.00,WeatherDisplay:10.37,2013-01-22 06:10:00,
2013-01-22 01:15:00,58.7,52.5,30.05,North,352,0.0,5.0,80,0.00,CLR,,0.00,WeatherDisplay:10.37,2013-01-22 06:15:00,
2013-01-22 01:20:00,58.7,52.2,30.05,North,4,0.0,1.0,79,0.00,CLR,,0.00,WeatherDisplay:10.37,2013-01-22 06:20:00,
2013-01-22 01:25:00,58.8,51.9,30.05,North,4,0.0,7.0,78,0.00,CLR,,0.00,WeatherDisplay:10.37,2013-01-22 06:25:00,
2013-01-22 01:30:00,58.7,51.9,30.05,North,10,0.0,1.0,78,0.00,CLR,,0.00,WeatherDisplay:10.37,2013-01-22 06:30:00,
2013-01-22 01:35:00,58.7,51.5,30.05,North,349,0.0,3.0,77,0.00,CLR,,0.00,WeatherDisplay:10.37,2013-01-22 06:35:00,
2013-01-22 01:40:00,58.7,51.1,30.05,NW,308,0.0,0.0,76,0.00,CLR,,0.00,WeatherDisplay:10.37,2013-01-22 06:40:00,
2013-01-22 01:45:00,58.6,51.4,30.05,NW,306,0.0,1.0,77,0.00,CLR,,0.00,WeatherDisplay:10.37,2013-01-22 06:45:00,
2013-01-22 01:50:00,58.4,51.2,30.05,NW,316,0.0,3.0,77,0.00,CLR,,0.00,WeatherDisplay:10.37,2013-01-22 06:50:00,
2013-01-22 01:55:00,58.2,51.0,30.05,North,4,0.0,1.0,77,0.00,CLR,,0.00,WeatherDisplay:10.37,2013-01-22 06:55:00,
2013-01-22 02:00:00,58.0,50.5,30.05,NNE,22,0.0,1.0,76,0.00,CLR,,0.00,WeatherDisplay:10.37,2013-01-22 07:00:00,
2013-01-22 02:05:00,57.9,50.4,30.05,North,360,0.0,0.0,76,0.00,CLR,,0.00,WeatherDisplay:10.37,2013-01-22 07:05:00,
2013-01-22 02:15:00,57.7,50.5,30.05,North,355,0.0,0.0,77,0.00,CLR,,0.00,WeatherDisplay:10.37,2013-01-22 07:15:00,
2013-01-22 02:20:00,57.5,50.0,30.06,North,355,0.0,0.0,76,0.00,CLR,,0.00,WeatherDisplay:10.37,2013-01-22 07:20:00,
2013-01-22 02:25:00,57.4,50.3,30.06,North,355,0.0,0.0,77,0.00,CLR,,0.00,WeatherDisplay:10.37,2013-01-22 07:25:00,
2013-01-22 02:30:00,57.3,50.1,30.05,North,355,0.0,0.0,77,0.00,CLR,,0.00,WeatherDisplay:10.37,2013-01-22 07:30:00,
2013-01-22 02:35:00,57.2,49.7,30.05,North,355,0.0,1.0,76,0.00,CLR,,0.00,WeatherDisplay:10.37,2013-01-22 07:35:00,
2013-01-22 02:40:00,57.1,49.6,30.05,North,356,0.0,3.0,76,0.00,CLR,,0.00,WeatherDisplay:10.37,2013-01-22 07:40:00,
2013-01-22 02:45:00,56.9,49.4,30.04,North,1,0.0,2.0,76,0.00,CLR,,0.00,WeatherDisplay:10.37,2013-01-22 07:45:00,
2013-01-22 02:50:00,56.9,49.1,30.04,North,8,0.0,1.0,75,0.00,CLR,,0.00,WeatherDisplay:10.37,2013-01-22 07:50:00,
2013-01-22 03:00:00,56.9,48.7,30.04,NNE,26,0.0,3.0,74,0.00,CLR,,0.00,WeatherDisplay:10.37,2013-01-22 08:00:00,
2013-01-22 03:05:00,56.9,48.4,30.04,NNE,33,0.0,1.0,73,0.00,CLR,,0.00,WeatherDisplay:10.37,2013-01-22 08:05:00,
2013-01-22 03:10:00,57.0,48.1,30.04,NNE,28,0.0,3.0,72,0.00,CLR,,0.00,WeatherDisplay:10.37,2013-01-22 08:10:00,
2013-01-22 03:15:00,57.1,48.2,30.04,North,10,0.0,5.0,72,0.00,CLR,,0.00,WeatherDisplay:10.37,2013-01-22 08:15:00,
2013-01-22 03:20:00,57.3,48.3,30.04,NNE,16,0.0,1.0,72,0.00,CLR,,0.00,WeatherDisplay:10.37,2013-01-22 08:20:00,
2013-01-22 03:25:00,57.3,48.0,30.04,NNE,22,0.0,2.0,71,0.00,CLR,,0.00,WeatherDisplay:10.37,2013-01-22 08:25:00,
2013-01-22 03:30:00,57.3,48.0,30.04,NNE,24,0.0,1.0,71,0.00,CLR,,0.00,WeatherDisplay:10.37,2013-01-22 08:30:00,
2013-01-22 03:35:00,57.2,47.9,30.04,NNE,24,0.0,1.0,71,0.00,CLR,,0.00,WeatherDisplay:10.37,2013-01-22 08:35:00,
2013-01-22 03:40:00,57.1,48.5,30.04,NNE,24,0.0,0.0,73,0.00,CLR,,0.00,WeatherDisplay:10.37,2013-01-22 08:40:00,
2013-01-22 03:45:00,56.9,48.3,30.04,NNE,24,0.0,0.0,73,0.00,CLR,,0.00,WeatherDisplay:10.37,2013-01-22 08:45:00,
2013-01-22 03:50:00,56.8,48.6,30.04,NNE,24,0.0,0.0,74,0.00,CLR,,0.00,WeatherDisplay:10.37,2013-01-22 08:50:00,
2013-01-22 03:55:00,56.6,48.8,30.04,NNE,24,0.0,1.0,75,0.00,CLR,,0.00,WeatherDisplay:10.37,2013-01-22 08:55:00,
2013-01-22 04:00:00,56.4,48.6,30.04,NNE,24,0.0,0.0,75,0.00,CLR,,0.00,WeatherDisplay:10.37,2013-01-22 09:00:00,
2013-01-22 04:05:00,56.1,48.6,30.04,NNE,24,0.0,0.0,76,0.00,CLR,,0.00,WeatherDisplay:10.37,2013-01-22 09:05:00,
2013-01-22 04:10:00,56.0,48.5,30.04,NNE,24,0.0,0.0,76,0.00,CLR,,0.00,WeatherDisplay:10.37,2013-01-22 09:10:00,
2013-01-22 04:15:00,55.8,48.3,30.04,NNE,24,0.0,0.0,76,0.00,CLR,,0.00,WeatherDisplay:10.37,2013-01-22 09:15:00,
2013-01-22 04:20:00,55.6,48.2,30.04,NNE,24,0.0,0.0,76,0.00,CLR,,0.00,WeatherDisplay:10.37,2013-01-22 09:20:00,
2013-01-22 04:25:00,55.5,48.4,30.04,NNE,24,0.0,0.0,77,0.00,CLR,,0.00,WeatherDisplay:10.37,2013-01-22 09:25:00,
2013-01-22 04:30:00,55.2,48.1,30.04,NNE,24,0.0,0.0,77,0.00,CLR,,0.00,WeatherDisplay:10.37,2013-01-22 09:30:00,
2013-01-22 04:35:00,54.9,47.9,30.04,NNE,24,0.0,0.0,77,0.00,CLR,,0.00,WeatherDisplay:10.37,2013-01-22 09:35:00,
2013-01-22 04:40:00,54.7,47.6,30.04,NNE,24,0.0,0.0,77,0.00,CLR,,0.00,WeatherDisplay:10.37,2013-01-22 09:40:00,
2013-01-22 04:45:00,54.4,47.7,30.04,NNE,24,0.0,1.0,78,0.00,CLR,,0.00,WeatherDisplay:10.37,2013-01-22 09:45:00,
2013-01-22 04:50:00,54.2,47.8,30.04,NNE,24,0.0,0.0,79,0.00,CLR,,0.00,WeatherDisplay:10.37,2013-01-22 09:50:00,
2013-01-22 04:55:00,53.9,47.6,30.05,NNE,24,0.0,0.0,79,0.00,CLR,,0.00,WeatherDisplay:10.37,2013-01-22 09:55:00,
2013-01-22 05:00:00,53.7,47.3,30.05,NNE,24,0.0,0.0,79,0.00,CLR,,0.00,WeatherDisplay:10.37,2013-01-22 10:00:00,
2013-01-22 05:05:00,53.6,47.2,30.05,NNE,24,0.0,0.0,79,0.00,CLR,,0.00,WeatherDisplay:10.37,2013-01-22 10:05:00,
2013-01-22 05:10:00,53.5,47.1,30.05,NNE,24,0.0,1.0,79,0.00,CLR,,0.00,WeatherDisplay:10.37,2013-01-22 10:10:00,
2013-01-22 05:15:00,53.6,47.3,30.04,North,4,0.0,1.0,79,0.00,CLR,,0.00,WeatherDisplay:10.37,2013-01-22 10:15:00,
2013-01-22 05:20:00,54.1,47.1,30.04,NNW,338,0.0,1.0,77,0.00,CLR,,0.00,WeatherDisplay:10.37,2013-01-22 10:20:00,
2013-01-22 05:25:00,54.5,47.1,30.05,NNW,331,0.0,2.0,76,0.00,CLR,,0.00,WeatherDisplay:10.37,2013-01-22 10:25:00,
2013-01-22 05:30:00,54.8,47.0,30.05,NNW,331,0.0,2.0,75,0.00,CLR,,0.00,WeatherDisplay:10.37,2013-01-22 10:30:00,
2013-01-22 05:35:00,54.9,47.1,30.05,NNW,331,0.0,1.0,75,0.00,CLR,,0.00,WeatherDisplay:10.37,2013-01-22 10:35:00,
2013-01-22 05:40:00,55.0,47.2,30.06,NNW,327,0.0,3.0,75,0.00,CLR,,0.00,WeatherDisplay:10.37,2013-01-22 10:40:00,
2013-01-22 05:45:00,55.1,47.0,30.06,NW,313,0.0,1.0,74,0.00,CLR,,0.00,WeatherDisplay:10.37,2013-01-22 10:45:00,
2013-01-22 05:50:00,55.0,46.9,30.06,NW,307,0.0,1.0,74,0.00,CLR,,0.00,WeatherDisplay:10.37,2013-01-22 10:50:00,
2013-01-22 05:55:00,55.0,46.5,30.06,NW,307,1.0,3.0,73,0.00,CLR,,0.00,WeatherDisplay:10.37,2013-01-22 10:55:00,
2013-01-22 06:00:00,55.1,46.6,30.06,NW,307,0.0,3.0,73,0.00,CLR,,0.00,WeatherDisplay:10.37,2013-01-22 11:00:00,
2013-01-22 06:05:00,55.1,46.6,30.06,NW,307,0.0,1.0,73,0.00,CLR,,0.00,WeatherDisplay:10.37,2013-01-22 11:05:00,
2013-01-22 06:10:00,55.1,46.6,30.07,NW,310,0.0,2.0,73,0.00,CLR,,0.00,WeatherDisplay:10.37,2013-01-22 11:10:00,
2013-01-22 06:20:00,55.0,46.5,30.07,NW,311,0.0,3.0,73,0.00,CLR,,0.00,WeatherDisplay:10.37,2013-01-22 11:20:00,
2013-01-22 06:30:00,55.0,46.5,30.08,NNW,337,1.0,4.0,73,0.00,CLR,,0.00,WeatherDisplay:10.37,2013-01-22 11:30:00,
2013-01-22 06:35:00,55.0,46.5,30.08,NNW,330,0.0,4.0,73,0.00,CLR,,0.00,WeatherDisplay:10.37,2013-01-22 11:35:00,
2013-01-22 06:45:00,55.0,46.5,30.09,NW,326,0.0,3.0,73,0.00,CLR,,0.00,WeatherDisplay:10.37,2013-01-22 11:45:00,
2013-01-22 06:50:00,54.9,46.8,30.09,NNW,331,1.0,6.0,74,0.00,CLR,,0.00,WeatherDisplay:10.37,2013-01-22 11:50:00,
2013-01-22 07:00:00,54.9,47.1,30.09,NW,326,0.0,4.0,75,0.00,CLR,,0.00,WeatherDisplay:10.37,2013-01-22 12:00:00,
2013-01-22 07:10:00,54.7,47.3,30.10,NNW,343,0.0,4.0,76,0.00,CLR,,0.00,WeatherDisplay:10.37,2013-01-22 12:10:00,
2013-01-22 07:15:00,54.6,47.2,30.11,NW,322,1.0,5.0,76,0.00,CLR,,0.00,WeatherDisplay:10.37,2013-01-22 12:15:00,
2013-01-22 07:25:00,54.6,47.5,30.11,NNW,335,0.0,5.0,77,0.00,CLR,,0.00,WeatherDisplay:10.37,2013-01-22 12:25:00,
2013-01-22 07:30:00,54.5,47.4,30.12,NW,324,1.0,5.0,77,0.00,CLR,,0.00,WeatherDisplay:10.37,2013-01-22 12:30:00,
2013-01-22 07:35:00,54.5,47.4,30.12,NW,324,1.0,9.0,77,0.00,CLR,,0.00,WeatherDisplay:10.37,2013-01-22 12:35:00,
2013-01-22 07:40:00,54.5,47.1,30.12,NW,321,2.0,7.0,76,0.00,CLR,,0.00,WeatherDisplay:10.37,2013-01-22 12:40:00,
2013-01-22 07:45:00,54.4,47.3,30.12,NW,323,0.0,3.0,77,0.00,CLR,,0.00,WeatherDisplay:10.37,2013-01-22 12:45:00,
2013-01-22 07:50:00,54.3,47.2,30.13,NW,325,1.0,5.0,77,0.00,CLR,,0.00,WeatherDisplay:10.37,2013-01-22 12:50:00,
2013-01-22 07:55:00,54.2,47.2,30.13,NNW,332,1.0,8.0,77,0.00,CLR,,0.00,WeatherDisplay:10.37,2013-01-22 12:55:00,
2013-01-22 08:00:00,54.3,47.2,30.13,NNW,338,1.0,8.0,77,0.00,CLR,,0.00,WeatherDisplay:10.37,2013-01-22 13:00:00,
2013-01-22 08:05:00,54.3,47.6,30.14,NNW,337,1.0,6.0,78,0.00,CLR,,0.00,WeatherDisplay:10.37,2013-01-22 13:05:00,
2013-01-22 08:10:00,54.4,47.3,30.14,NNW,333,0.0,4.0,77,0.00,CLR,,0.00,WeatherDisplay:10.37,2013-01-22 13:10:00,
2013-01-22 08:15:00,54.6,47.6,30.14,NNW,339,0.0,5.0,77,0.00,CLR,,0.00,WeatherDisplay:10.37,2013-01-22 13:15:00,
2013-01-22 08:25:00,55.0,47.9,30.14,North,352,1.0,6.0,77,0.00,CLR,,0.00,WeatherDisplay:10.37,2013-01-22 13:25:00,
2013-01-22 08:35:00,55.3,47.9,30.15,NNW,347,1.0,5.0,76,0.00,CLR,,0.00,WeatherDisplay:10.37,2013-01-22 13:35:00,
2013-01-22 08:40:00,55.6,48.1,30.16,NNW,345,1.0,7.0,76,0.00,CLR,,0.00,WeatherDisplay:10.37,2013-01-22 13:40:00,
2013-01-22 08:45:00,55.9,48.4,30.16,NNW,346,1.0,5.0,76,0.00,CLR,,0.00,WeatherDisplay:10.37,2013-01-22 13:45:00,
2013-01-22 08:50:00,56.3,48.1,30.16,NNW,342,2.0,6.0,74,0.00,CLR,,0.00,WeatherDisplay:10.37,2013-01-22 13:50:00,
2013-01-22 08:55:00,56.5,48.3,30.16,NNW,340,1.0,7.0,74,0.00,CLR,,0.00,WeatherDisplay:10.37,2013-01-22 13:55:00,
2013-01-22 09:00:00,56.7,48.5,30.17,NNW,340,0.0,6.0,74,0.00,CLR,,0.00,WeatherDisplay:10.37,2013-01-22 14:00:00,
2013-01-22 09:05:00,56.8,48.2,30.17,North,8,2.0,10.0,73,0.00,CLR,,0.00,WeatherDisplay:10.37,2013-01-22 14:05:00,
2013-01-22 09:10:00,56.9,48.3,30.17,NNE,12,1.0,9.0,73,0.00,CLR,,0.00,WeatherDisplay:10.37,2013-01-22 14:10:00,
2013-01-22 09:15:00,57.2,48.6,30.17,North,9,1.0,12.0,73,0.00,CLR,,0.00,WeatherDisplay:10.37,2013-01-22 14:15:00,
2013-01-22 09:20:00,57.3,48.7,30.17,North,1,1.0,6.0,73,0.00,CLR,,0.00,WeatherDisplay:10.37,2013-01-22 14:20:00,
2013-01-22 09:25:00,57.6,48.7,30.17,North,11,1.0,10.0,72,0.00,CLR,,0.00,WeatherDisplay:10.37,2013-01-22 14:25:00,
2013-01-22 09:30:00,57.8,48.8,30.18,NNE,14,2.0,8.0,72,0.00,CLR,,0.00,WeatherDisplay:10.37,2013-01-22 14:30:00,
2013-01-22 09:35:00,58.2,49.2,30.19,North,11,1.0,7.0,72,0.00,CLR,,0.00,WeatherDisplay:10.37,2013-01-22 14:35:00,
2013-01-22 09:40:00,58.4,49.0,30.19,North,354,1.0,6.0,71,0.00,CLR,,0.00,WeatherDisplay:10.37,2013-01-22 14:40:00,
2013-01-22 09:45:00,58.5,48.4,30.19,NNW,348,1.0,8.0,69,0.00,CLR,,0.00,WeatherDisplay:10.37,2013-01-22 14:45:00,
2013-01-22 09:50:00,58.6,48.5,30.19,NNE,16,1.0,6.0,69,0.00,CLR,,0.00,WeatherDisplay:10.37,2013-01-22 14:50:00,
2013-01-22 09:55:00,58.8,48.7,30.19,NNE,20,5.0,9.0,69,0.00,CLR,,0.00,WeatherDisplay:10.37,2013-01-22 14:55:00,
2013-01-22 10:00:00,58.9,48.4,30.19,NNE,13,5.0,10.0,68,0.00,CLR,,0.00,WeatherDisplay:10.37,2013-01-22 15:00:00,
2013-01-22 10:10:00,59.2,48.2,30.20,NNE,19,2.0,12.0,67,0.00,CLR,,0.00,WeatherDisplay:10.37,2013-01-22 15:10:00,
2013-01-22 10:15:00,59.5,48.2,30.20,NNE,27,3.0,9.0,66,0.00,CLR,,0.00,WeatherDisplay:10.37,2013-01-22 15:15:00,
2013-01-22 10:20:00,59.6,48.2,30.20,NNE,18,1.0,6.0,66,0.00,CLR,,0.00,WeatherDisplay:10.37,2013-01-22 15:20:00,
2013-01-22 10:25:00,59.9,49.0,30.20,North,8,1.0,8.0,67,0.00,CLR,,0.00,WeatherDisplay:10.37,2013-01-22 15:25:00,
2013-01-22 10:30:00,60.1,48.3,30.20,North,356,3.0,12.0,65,0.00,CLR,,0.00,WeatherDisplay:10.37,2013-01-22 15:30:00,
2013-01-22 10:40:00,60.3,48.5,30.20,NNE,29,2.0,9.0,65,0.00,CLR,,0.00,WeatherDisplay:10.37,2013-01-22 15:40:00,
2013-01-22 10:45:00,60.7,49.2,30.20,NNE,33,1.0,8.0,66,0.00,CLR,,0.00,WeatherDisplay:10.37,2013-01-22 15:45:00,
2013-01-22 10:50:00,60.6,47.9,30.20,NNE,17,5.0,10.0,63,0.00,CLR,,0.00,WeatherDisplay:10.37,2013-01-22 15:50:00,
2013-01-22 10:55:00,60.8,48.5,30.20,North,4,1.0,6.0,64,0.00,CLR,,0.00,WeatherDisplay:10.37,2013-01-22 15:55:00,
2013-01-22 11:00:00,60.9,48.6,30.20,NNW,348,1.0,8.0,64,0.00,CLR,,0.00,WeatherDisplay:10.37,2013-01-22 16:00:00,
2013-01-22 11:05:00,61.4,49.1,30.20,NNE,25,5.0,10.0,64,0.00,CLR,,0.00,WeatherDisplay:10.37,2013-01-22 16:05:00,
2013-01-22 11:10:00,62.0,49.7,30.20,NE,37,3.0,9.0,64,0.00,CLR,,0.00,WeatherDisplay:10.37,2013-01-22 16:10:00,
2013-01-22 11:15:00,62.3,49.5,30.20,NNE,33,2.0,7.0,63,0.00,CLR,,0.00,WeatherDisplay:10.37,2013-01-22 16:15:00,
2013-01-22 11:20:00,62.3,48.6,30.20,North,10,2.0,10.0,61,0.00,CLR,,0.00,WeatherDisplay:10.37,2013-01-22 16:20:00,
2013-01-22 11:30:00,61.8,48.6,30.20,North,6,6.0,10.0,62,0.00,CLR,,0.00,WeatherDisplay:10.37,2013-01-22 16:30:00,
2013-01-22 11:35:00,61.7,49.0,30.20,NNE,16,2.0,12.0,63,0.00,CLR,,0.00,WeatherDisplay:10.37,2013-01-22 16:35:00,
2013-01-22 11:40:00,61.5,48.3,30.20,NNE,14,1.0,8.0,62,0.00,CLR,,0.00,WeatherDisplay:10.37,2013-01-22 16:40:00,
2013-01-22 11:45:00,61.3,48.6,30.20,North,6,1.0,12.0,63,0.00,CLR,,0.00,WeatherDisplay:10.37,2013-01-22 16:45:00,
2013-01-22 11:50:00,61.5,49.2,30.21,North,5,1.0,9.0,64,0.00,CLR,,0.00,WeatherDisplay:10.37,2013-01-22 16:50:00,
2013-01-22 12:00:00,61.9,48.7,30.20,NNE,20,1.0,6.0,62,0.00,CLR,,0.00,WeatherDisplay:10.37,2013-01-22 17:00:00,
2013-01-22 12:05:00,62.0,48.8,30.20,North,6,2.0,9.0,62,0.00,CLR,,0.00,WeatherDisplay:10.37,2013-01-22 17:05:00,
2013-01-22 12:15:00,62.4,48.8,30.20,NNE,19,3.0,10.0,61,0.00,CLR,,0.00,WeatherDisplay:10.37,2013-01-22 17:15:00,
2013-01-22 12:25:00,62.1,47.6,30.20,North,9,0.0,7.0,59,0.00,CLR,,0.00,WeatherDisplay:10.37,2013-01-22 17:25:00,
2013-01-22 12:35:00,62.2,49.0,30.19,NNE,18,1.0,7.0,62,0.00,CLR,,0.00,WeatherDisplay:10.37,2013-01-22 17:35:00,
2013-01-22 12:40:00,62.1,48.5,30.19,North,4,2.0,6.0,61,0.00,CLR,,0.00,WeatherDisplay:10.37,2013-01-22 17:40:00,
2013-01-22 12:45:00,62.3,48.7,30.18,NNW,339,5.0,8.0,61,0.00,CLR,,0.00,WeatherDisplay:10.37,2013-01-22 17:45:00,
2013-01-22 12:50:00,62.3,49.1,30.19,NNW,348,2.0,7.0,62,0.00,CLR,,0.00,WeatherDisplay:10.37,2013-01-22 17:50:00,
2013-01-22 12:55:00,62.6,49.4,30.18,NNE,15,2.0,7.0,62,0.00,CLR,,0.00,WeatherDisplay:10.37,2013-01-22 17:55:00,
2013-01-22 13:00:00,62.9,49.7,30.18,NNE,27,1.0,9.0,62,0.00,CLR,,0.00,WeatherDisplay:10.37,2013-01-22 18:00:00,
2013-01-22 13:05:00,63.1,49.4,30.18,North,8,2.0,8.0,61,0.00,CLR,,0.00,WeatherDisplay:10.37,2013-01-22 18:05:00,
2013-01-22 13:10:00,63.2,49.5,30.18,North,355,0.0,9.0,61,0.00,CLR,,0.00,WeatherDisplay:10.37,2013-01-22 18:10:00,
2013-01-22 13:15:00,63.1,48.5,30.18,North,11,5.0,9.0,59,0.00,CLR,,0.00,WeatherDisplay:10.37,2013-01-22 18:15:00,
2013-01-22 13:20:00,63.1,48.5,30.18,NNE,25,3.0,10.0,59,0.00,CLR,,0.00,WeatherDisplay:10.37,2013-01-22 18:20:00,
2013-01-22 13:25:00,63.4,49.3,30.18,NNE,22,1.0,4.0,60,0.00,CLR,,0.00,WeatherDisplay:10.37,2013-01-22 18:25:00,
2013-01-22 13:30:00,63.0,48.9,30.18,North,2,1.0,5.0,60,0.00,CLR,,0.00,WeatherDisplay:10.37,2013-01-22 18:30:00,
2013-01-22 13:35:00,63.1,49.0,30.18,North,5,2.0,7.0,60,0.00,CLR,,0.00,WeatherDisplay:10.37,2013-01-22 18:35:00,
2013-01-22 13:40:00,63.1,48.5,30.18,North,8,2.0,9.0,59,0.00,CLR,,0.00,WeatherDisplay:10.37,2013-01-22 18:40:00,
2013-01-22 13:45:00,63.2,49.1,30.18,North,6,1.0,5.0,60,0.00,CLR,,0.00,WeatherDisplay:10.37,2013-01-22 18:45:00,
2013-01-22 13:50:00,63.5,48.4,30.17,NNE,23,2.0,9.0,58,0.00,CLR,,0.00,WeatherDisplay:10.37,2013-01-22 18:50:00,
2013-01-22 13:55:00,63.6,48.5,30.17,NNE,23,2.0,9.0,58,0.00,CLR,,0.00,WeatherDisplay:10.37,2013-01-22 18:55:00,
2013-01-22 14:00:00,63.6,48.5,30.17,NNE,28,0.0,8.0,58,0.00,CLR,,0.00,WeatherDisplay:10.37,2013-01-22 19:00:00,
2013-01-22 14:10:00,63.7,48.6,30.17,NNE,22,1.0,8.0,58,0.00,CLR,,0.00,WeatherDisplay:10.37,2013-01-22 19:10:00,
2013-01-22 14:15:00,63.4,47.9,30.17,NNE,15,1.0,5.0,57,0.00,CLR,,0.00,WeatherDisplay:10.37,2013-01-22 19:15:00,
2013-01-22 14:20:00,62.9,47.4,30.17,NNE,18,1.0,6.0,57,0.00,CLR,,0.00,WeatherDisplay:10.37,2013-01-22 19:20:00,
2013-01-22 14:25:00,62.8,47.8,30.17,NNE,26,2.0,7.0,58,0.00,CLR,,0.00,WeatherDisplay:10.37,2013-01-22 19:25:00,
2013-01-22 14:30:00,63.0,47.1,30.17,NNE,26,2.0,6.0,56,0.00,CLR,,0.00,WeatherDisplay:10.37,2013-01-22 19:30:00,
2013-01-22 14:40:00,62.6,44.2,30.17,NNE,13,3.0,10.0,51,0.00,CLR,,0.00,WeatherDisplay:10.37,2013-01-22 19:40:00,
2013-01-22 14:45:00,62.3,43.4,30.17,NNE,27,1.0,10.0,50,0.00,CLR,,0.00,WeatherDisplay:10.37,2013-01-22 19:45:00,
2013-01-22 14:50:00,62.2,44.3,30.17,NNE,29,0.0,7.0,52,0.00,CLR,,0.00,WeatherDisplay:10.37,2013-01-22 19:50:00,
2013-01-22 14:55:00,62.2,44.3,30.17,NNE,26,5.0,8.0,52,0.00,CLR,,0.00,WeatherDisplay:10.37,2013-01-22 19:55:00,
2013-01-22 15:00:00,62.3,45.4,30.17,NNE,24,0.0,6.0,54,0.00,CLR,,0.00,WeatherDisplay:10.37,2013-01-22 20:00:00,
2013-01-22 15:05:00,62.3,44.5,30.17,North,360,1.0,6.0,52,0.00,CLR,,0.00,WeatherDisplay:10.37,2013-01-22 20:05:00,
2013-01-22 15:10:00,62.5,44.6,30.17,NNE,24,1.0,12.0,52,0.00,CLR,,0.00,WeatherDisplay:10.37,2013-01-22 20:10:00,
2013-01-22 15:15:00,62.4,44.6,30.17,NNE,27,1.0,9.0,52,0.00,CLR,,0.00,WeatherDisplay:10.37,2013-01-22 20:15:00,
2013-01-22 15:20:00,62.4,45.0,30.18,NNE,22,1.0,7.0,53,0.00,CLR,,0.00,WeatherDisplay:10.37,2013-01-22 20:20:00,
2013-01-22 15:25:00,62.2,43.8,30.18,North,7,2.0,9.0,51,0.00,CLR,,0.00,WeatherDisplay:10.37,2013-01-22 20:25:00,
2013-01-22 15:35:00,62.2,42.8,30.18,NNE,16,3.0,9.0,49,0.00,CLR,,0.00,WeatherDisplay:10.37,2013-01-22 20:35:00,
2013-01-22 15:40:00,62.2,43.4,30.18,NE,39,0.0,7.0,50,0.00,CLR,,0.00,WeatherDisplay:10.37,2013-01-22 20:40:00,
2013-01-22 15:45:00,62.1,43.7,30.18,NE,49,1.0,8.0,51,0.00,CLR,,0.00,WeatherDisplay:10.37,2013-01-22 20:45:00,
2013-01-22 15:50:00,62.0,43.7,30.18,NE,44,1.0,8.0,51,0.00,CLR,,0.00,WeatherDisplay:10.37,2013-01-22 20:50:00,
2013-01-22 16:00:00,61.7,43.4,30.18,NNE,23,1.0,6.0,51,0.00,CLR,,0.00,WeatherDisplay:10.37,2013-01-22 21:00:00,
2013-01-22 16:10:00,61.4,42.1,30.19,NNE,12,0.0,5.0,49,0.00,CLR,,0.00,WeatherDisplay:10.37,2013-01-22 21:10:00,
2013-01-22 16:15:00,61.2,41.4,30.19,NNE,29,2.0,7.0,48,0.00,CLR,,0.00,WeatherDisplay:10.37,2013-01-22 21:15:00,
2013-01-22 16:20:00,61.2,42.4,30.19,NE,46,0.0,4.0,50,0.00,CLR,,0.00,WeatherDisplay:10.37,2013-01-22 21:20:00,
2013-01-22 16:25:00,61.1,41.8,30.19,NE,54,0.0,4.0,49,0.00,CLR,,0.00,WeatherDisplay:10.37,2013-01-22 21:25:00,
2013-01-22 16:30:00,61.0,42.7,30.19,NE,48,0.0,1.0,51,0.00,CLR,,0.00,WeatherDisplay:10.37,2013-01-22 21:30:00,
2013-01-22 16:35:00,60.9,42.1,30.19,ENE,59,0.0,3.0,50,0.00,CLR,,0.00,WeatherDisplay:10.37,2013-01-22 21:35:00,
2013-01-22 16:40:00,60.7,42.5,30.19,NE,53,0.0,2.0,51,0.00,CLR,,0.00,WeatherDisplay:10.37,2013-01-22 21:40:00,
2013-01-22 16:45:00,60.5,41.8,30.19,NNE,29,0.0,3.0,50,0.00,CLR,,0.00,WeatherDisplay:10.37,2013-01-22 21:45:00,
2013-01-22 16:50:00,60.4,41.7,30.20,NNE,24,0.0,4.0,50,0.00,CLR,,0.00,WeatherDisplay:10.37,2013-01-22 21:50:00,
2013-01-22 16:55:00,60.3,41.0,30.20,NNE,23,0.0,5.0,49,0.00,CLR,,0.00,WeatherDisplay:10.37,2013-01-22 21:55:00,
2013-01-22 17:00:00,60.1,40.9,30.20,NNE,28,0.0,5.0,49,0.00,CLR,,0.00,WeatherDisplay:10.37,2013-01-22 22:00:00,
2013-01-22 17:10:00,59.7,40.5,30.20,NE,35,0.0,4.0,49,0.00,CLR,,0.00,WeatherDisplay:10.37,2013-01-22 22:10:00,
2013-01-22 17:15:00,59.5,40.8,30.20,NNE,26,0.0,5.0,50,0.00,CLR,,0.00,WeatherDisplay:10.37,2013-01-22 22:15:00,
2013-01-22 17:20:00,59.2,41.1,30.20,NE,38,0.0,1.0,51,0.00,CLR,,0.00,WeatherDisplay:10.37,2013-01-22 22:20:00,
2013-01-22 17:25:00,58.9,40.8,30.20,NE,39,0.0,1.0,51,0.00,CLR,,0.00,WeatherDisplay:10.37,2013-01-22 22:25:00,
2013-01-22 17:30:00,58.5,40.9,30.20,NE,39,0.0,1.0,52,0.00,CLR,,0.00,WeatherDisplay:10.37,2013-01-22 22:30:00,
2013-01-22 17:35:00,58.2,40.6,30.20,NE,39,0.0,0.0,52,0.00,CLR,,0.00,WeatherDisplay:10.37,2013-01-22 22:35:00,
2013-01-22 17:40:00,57.8,40.8,30.20,NE,39,0.0,0.0,53,0.00,CLR,,0.00,WeatherDisplay:10.37,2013-01-22 22:40:00,
2013-01-22 17:45:00,57.5,41.4,30.21,NE,39,0.0,0.0,55,0.00,CLR,,0.00,WeatherDisplay:10.37,2013-01-22 22:45:00,
2013-01-22 17:50:00,57.1,42.0,30.21,NE,39,0.0,0.0,57,0.00,CLR,,0.00,WeatherDisplay:10.37,2013-01-22 22:50:00,
2013-01-22 17:55:00,56.7,42.0,30.21,NE,39,0.0,0.0,58,0.00,CLR,,0.00,WeatherDisplay:10.37,2013-01-22 22:55:00,
2013-01-22 18:00:00,56.1,42.0,30.20,NE,39,0.0,0.0,59,0.00,CLR,,0.00,WeatherDisplay:10.37,2013-01-22 23:00:00,
2013-01-22 18:05:00,55.5,41.8,30.21,NE,39,0.0,0.0,60,0.00,CLR,,0.00,WeatherDisplay:10.37,2013-01-22 23:05:00,
2013-01-22 18:10:00,54.9,42.1,30.21,NE,39,0.0,0.0,62,0.00,CLR,,0.00,WeatherDisplay:10.37,2013-01-22 23:10:00,
2013-01-22 18:15:00,54.4,42.0,30.21,NE,39,0.0,0.0,63,0.00,CLR,,0.00,WeatherDisplay:10.37,2013-01-22 23:15:00,
2013-01-22 18:20:00,53.9,42.4,30.21,NE,39,0.0,0.0,65,0.00,CLR,,0.00,WeatherDisplay:10.37,2013-01-22 23:20:00,
2013-01-22 18:25:00,53.4,42.7,30.21,NE,39,0.0,0.0,67,0.00,CLR,,0.00,WeatherDisplay:10.37,2013-01-22 23:25:00,
2013-01-22 18:30:00,52.9,42.2,30.21,NE,39,0.0,0.0,67,0.00,CLR,,0.00,WeatherDisplay:10.37,2013-01-22 23:30:00,
2013-01-22 18:35:00,52.4,42.1,30.21,NE,39,0.0,0.0,68,0.00,CLR,,0.00,WeatherDisplay:10.37,2013-01-22 23:35:00,
2013-01-22 18:40:00,51.9,42.4,30.22,NE,39,0.0,0.0,70,0.00,CLR,,0.00,WeatherDisplay:10.37,2013-01-22 23:40:00,
2013-01-22 18:45:00,51.5,42.8,30.21,NE,39,0.0,0.0,72,0.00,CLR,,0.00,WeatherDisplay:10.37,2013-01-22 23:45:00,
2013-01-22 18:50:00,51.1,42.4,30.21,NE,39,0.0,0.0,72,0.00,CLR,,0.00,WeatherDisplay:10.37,2013-01-22 23:50:00,
2013-01-22 18:55:00,50.8,42.4,30.22,NE,39,0.0,0.0,73,0.00,CLR,,0.00,WeatherDisplay:10.37,2013-01-22 23:55:00,
2013-01-22 19:00:00,50.4,43.1,30.22,NE,39,0.0,0.0,76,0.00,CLR,,0.00,WeatherDisplay:10.37,2013-01-23 00:00:00,
2013-01-22 19:10:00,50.0,43.1,30.22,NE,39,0.0,0.0,77,0.00,CLR,,0.00,WeatherDisplay:10.37,2013-01-23 00:10:00,
2013-01-22 19:15:00,49.8,42.9,30.22,NE,39,0.0,0.0,77,0.00,CLR,,0.00,WeatherDisplay:10.37,2013-01-23 00:15:00,
2013-01-22 19:20:00,49.5,42.6,30.22,NE,39,0.0,0.0,77,0.00,CLR,,0.00,WeatherDisplay:10.37,2013-01-23 00:20:00,
2013-01-22 19:25:00,49.3,43.0,30.22,NE,39,0.0,0.0,79,0.00,CLR,,0.00,WeatherDisplay:10.37,2013-01-23 00:25:00,
2013-01-22 19:30:00,49.0,42.8,30.22,NE,39,0.0,0.0,79,0.00,CLR,,0.00,WeatherDisplay:10.37,2013-01-23 00:30:00,
2013-01-22 19:35:00,48.8,42.9,30.22,NE,39,0.0,0.0,80,0.00,CLR,,0.00,WeatherDisplay:10.37,2013-01-23 00:35:00,
2013-01-22 19:40:00,48.6,42.7,30.22,NE,39,0.0,0.0,80,0.00,CLR,,0.00,WeatherDisplay:10.37,2013-01-23 00:40:00,
2013-01-22 19:45:00,48.3,42.4,30.23,NE,39,0.0,0.0,80,0.00,CLR,,0.00,WeatherDisplay:10.37,2013-01-23 00:45:00,
2013-01-22 19:50:00,48.1,42.6,30.23,NE,39,0.0,0.0,81,0.00,CLR,,0.00,WeatherDisplay:10.37,2013-01-23 00:50:00,
2013-01-22 19:55:00,47.9,42.7,30.23,NE,39,0.0,0.0,82,0.00,CLR,,0.00,WeatherDisplay:10.37,2013-01-23 00:55:00,
2013-01-22 20:00:00,47.8,42.6,30.23,NE,39,0.0,0.0,82,0.00,CLR,,0.00,WeatherDisplay:10.37,2013-01-23 01:00:00,
2013-01-22 20:05:00,47.7,42.8,30.23,NE,39,0.0,0.0,83,0.00,CLR,,0.00,WeatherDisplay:10.37,2013-01-23 01:05:00,
2013-01-22 20:10:00,47.6,43.0,30.23,NE,39,0.0,0.0,84,0.00,CLR,,0.00,WeatherDisplay:10.37,2013-01-23 01:10:00,
2013-01-22 20:15:00,47.7,43.4,30.23,NE,39,0.0,0.0,85,0.00,CLR,,0.00,WeatherDisplay:10.37,2013-01-23 01:15:00,
2013-01-22 20:20:00,47.8,43.5,30.23,NE,39,0.0,0.0,85,0.00,CLR,,0.00,WeatherDisplay:10.37,2013-01-23 01:20:00,
2013-01-22 20:25:00,47.9,43.3,30.23,NE,39,0.0,0.0,84,0.00,CLR,,0.00,WeatherDisplay:10.37,2013-01-23 01:25:00,
2013-01-22 20:30:00,47.8,43.2,30.23,NE,39,0.0,0.0,84,0.00,CLR,,0.00,WeatherDisplay:10.37,2013-01-23 01:30:00,
2013-01-22 20:35:00,47.7,43.1,30.24,NE,39,0.0,0.0,84,0.00,CLR,,0.00,WeatherDisplay:10.37,2013-01-23 01:35:00,
2013-01-22 20:45:00,47.3,42.7,30.24,NE,39,0.0,0.0,84,0.00,CLR,,0.00,WeatherDisplay:10.37,2013-01-23 01:45:00,
2013-01-22 20:55:00,47.1,43.2,30.24,NE,39,0.0,0.0,86,0.00,CLR,,0.00,WeatherDisplay:10.37,2013-01-23 01:55:00,
2013-01-22 21:00:00,47.1,43.1,30.24,NE,39,0.0,0.0,86,0.00,CLR,,0.00,WeatherDisplay:10.37,2013-01-23 02:00:00,
2013-01-22 21:05:00,46.9,42.6,30.24,NE,39,0.0,0.0,85,0.00,CLR,,0.00,WeatherDisplay:10.37,2013-01-23 02:05:00,
2013-01-22 21:10:00,46.7,42.5,30.24,NE,39,0.0,0.0,85,0.00,CLR,,0.00,WeatherDisplay:10.37,2013-01-23 02:10:00,
2013-01-22 21:15:00,46.5,42.2,30.24,NE,39,0.0,0.0,85,0.00,CLR,,0.00,WeatherDisplay:10.37,2013-01-23 02:15:00,
2013-01-22 21:20:00,46.2,41.9,30.24,NE,39,0.0,0.0,85,0.00,CLR,,0.00,WeatherDisplay:10.37,2013-01-23 02:20:00,
2013-01-22 21:25:00,46.2,42.5,30.24,NE,39,0.0,0.0,87,0.00,CLR,,0.00,WeatherDisplay:10.37,2013-01-23 02:25:00,
2013-01-22 21:30:00,46.3,42.6,30.24,NE,39,0.0,0.0,87,0.00,CLR,,0.00,WeatherDisplay:10.37,2013-01-23 02:30:00,
2013-01-22 21:40:00,45.9,42.3,30.24,NE,39,0.0,0.0,87,0.00,CLR,,0.00,WeatherDisplay:10.37,2013-01-23 02:40:00,
2013-01-22 21:50:00,45.6,41.9,30.24,NE,39,0.0,0.0,87,0.00,CLR,,0.00,WeatherDisplay:10.37,2013-01-23 02:50:00,
2013-01-22 21:55:00,45.4,42.1,30.24,NE,39,0.0,0.0,88,0.00,CLR,,0.00,WeatherDisplay:10.37,2013-01-23 02:55:00,
2013-01-22 22:05:00,45.1,41.7,30.25,NE,39,0.0,0.0,88,0.00,CLR,,0.00,WeatherDisplay:10.37,2013-01-23 03:05:00,
2013-01-22 22:10:00,45.0,41.6,30.25,NE,39,0.0,0.0,88,0.00,CLR,,0.00,WeatherDisplay:10.37,2013-01-23 03:10:00,
2013-01-22 22:15:00,44.8,41.5,30.25,NE,39,0.0,0.0,88,0.00,CLR,,0.00,WeatherDisplay:10.37,2013-01-23 03:15:00,
2013-01-22 22:20:00,44.7,41.7,30.25,NE,39,0.0,0.0,89,0.00,CLR,,0.00,WeatherDisplay:10.37,2013-01-23 03:20:00,
2013-01-22 22:30:00,44.4,41.4,30.25,NE,39,0.0,0.0,89,0.00,CLR,,0.00,WeatherDisplay:10.37,2013-01-23 03:30:00,
2013-01-22 22:35:00,44.4,41.7,30.25,NE,39,0.0,0.0,90,0.00,CLR,,0.00,WeatherDisplay:10.37,2013-01-23 03:35:00,
2013-01-22 22:40:00,44.3,41.6,30.25,NE,39,0.0,0.0,90,0.00,CLR,,0.00,WeatherDisplay:10.37,2013-01-23 03:40:00,
2013-01-22 22:45:00,44.2,41.5,30.25,NE,39,0.0,0.0,90,0.00,CLR,,0.00,WeatherDisplay:10.37,2013-01-23 03:45:00,
2013-01-22 22:50:00,44.2,41.7,30.25,NE,39,0.0,0.0,91,0.00,CLR,,0.00,WeatherDisplay:10.37,2013-01-23 03:50:00,
2013-01-22 22:55:00,44.2,41.7,30.25,NE,39,0.0,0.0,91,0.00,CLR,,0.00,WeatherDisplay:10.37,2013-01-23 03:55:00,
2013-01-22 23:00:00,44.1,41.6,30.25,NE,39,0.0,0.0,91,0.00,CLR,,0.00,WeatherDisplay:10.37,2013-01-23 04:00:00,
2013-01-22 23:05:00,44.0,41.5,30.25,NE,39,0.0,0.0,91,0.00,CLR,,0.00,WeatherDisplay:10.37,2013-01-23 04:05:00,
2013-01-22 23:15:00,44.3,42.4,30.25,NE,39,0.0,0.0,93,0.00,CLR,,0.00,WeatherDisplay:10.37,2013-01-23 04:15:00,
2013-01-22 23:20:00,44.2,42.0,30.24,NE,39,0.0,0.0,92,0.00,CLR,,0.00,WeatherDisplay:10.37,2013-01-23 04:20:00,
2013-01-22 23:25:00,44.3,42.1,30.24,NE,39,0.0,0.0,92,0.00,CLR,,0.00,WeatherDisplay:10.37,2013-01-23 04:25:00,
2013-01-22 23:30:00,44.1,41.6,30.24,NE,39,0.0,0.0,91,0.00,CLR,,0.00,WeatherDisplay:10.37,2013-01-23 04:30:00,
2013-01-22 23:35:00,44.0,41.8,30.24,NE,39,0.0,0.0,92,0.00,CLR,,0.00,WeatherDisplay:10.37,2013-01-23 04:35:00,
2013-01-22 23:40:00,44.0,41.8,30.24,NE,39,0.0,0.0,92,0.00,CLR,,0.00,WeatherDisplay:10.37,2013-01-23 04:40:00,
2013-01-22 23:45:00,44.0,42.1,30.24,NE,39,0.0,0.0,93,0.00,CLR,,0.00,WeatherDisplay:10.37,2013-01-23 04:45:00,
2013-01-22 23:50:00,44.1,42.2,30.24,NE,39,0.0,0.0,93,0.00,CLR,,0.00,WeatherDisplay:10.37,2013-01-23 04:50:00,
2013-01-22 23:55:00,44.0,41.8,30.24,NE,39,0.0,0.0,92,0.00,CLR,,0.00,WeatherDisplay:10.37,2013-01-23 04:55:00,